Home > Time Zones > World Clock > Weather > Palau > Koror > Past weeks

Flag for Palau Weather past 2 weeks in Koror, Palau

Now
81 °F

Partly cloudy.


Feels Like: 87 °F
Forecast: 82 / 87 °F
Wind: 6 mph from West

Location: Koror / Palau Island

Current Time: Sep 4, 2015 at 4:22:38 AM

Latest Report: Sep 4, 2015 at 3:50 AM


Visibility: 14 mi

Pressure: 29.86 "Hg

Humidity: 89%

Dew point: 77 °F

Location of KororLocation

Historic Weather in Koror — Graph

°F

Koror temperature yesterday

Maximum temperature yesterday: 88 °F (at 10:50 AM)
Minimum temperature yesterday: 77 °F (at 2:55 AM)
Average temperature yesterday: 83 °F

Past Weeks' High & Low Weather Summary

 TemperatureHumidityPressure
High88 °F (Aug 24, 11:50 AM)100% (Aug 24, 12:53 AM)29.94 "Hg (Aug 24, 12:53 AM)
Low73 °F (Aug 24, 12:53 AM)62% (Aug 25, 10:52 AM)29.76 "Hg (Aug 27, 4:51 PM)
Average81 °F83%29.85 "Hg
* Reported Aug 20 2:50 AM — Sep 4 2:50 AM, Koror, Weather by CustomWeather, © 2015

Note: Actual official high and low records may vary slightly from our data, if they occured in-between our weather recording intervals... More about our weather records

Advertising

Koror weather history for previous 24 hours

 ConditionsComfort  
Time TempWeatherWind HumidityBarometerVisibility
2:50 AM
Fri, Sep 4
81 °FPartly cloudy.6 mph89%29.86 "Hg14 mi
1:50 AM81 °FPartly cloudy.6 mph89%29.87 "Hg14 mi
12:55 AM81 °FPartly cloudy.5 mph89%29.91 "Hg14 mi
11:50 PM
Thu, Sep 3
81 °FPartly cloudy.No wind89%29.91 "Hg14 mi
10:54 PM81 °FPartly cloudy.No wind89%29.92 "Hg14 mi
9:54 PM81 °FPartly cloudy.3 mph84%29.92 "Hg15 mi
8:55 PM82 °FPartly cloudy.5 mph84%29.92 "Hg15 mi
7:53 PM82 °FPartly cloudy.5 mph84%29.90 "Hg15 mi
6:51 PM82 °FPartly cloudy.7 mph79%29.88 "Hg15 mi
5:53 PM84 °FBroken clouds.7 mph74%29.87 "Hg15 mi
4:55 PM86 °FBroken clouds.8 mph75%29.84 "Hg15 mi
3:50 PM86 °FBroken clouds.15 mph75%29.84 "Hg15 mi
2:55 PM88 °FPartly sunny.13 mph66%29.83 "Hg15 mi
1:50 PM88 °FPartly sunny.10 mph70%29.84 "Hg15 mi
12:50 PM88 °FBroken clouds.12 mph70%29.85 "Hg15 mi
11:50 AM88 °FBroken clouds.12 mph70%29.88 "Hg15 mi
10:50 AM88 °FBroken clouds.9 mph70%29.89 "Hg15 mi
9:50 AM86 °FBroken clouds.8 mph75%29.89 "Hg15 mi
8:50 AM84 °FBroken clouds.8 mph79%29.91 "Hg15 mi
7:50 AM82 °FBroken clouds.8 mph89%29.89 "Hg15 mi
6:50 AM81 °FBroken clouds.6 mph89%29.88 "Hg15 mi
4:52 AM77 °FPartly cloudy.No wind94%29.87 "Hg15 mi
Weather by CustomWeather, © 2015

See weather overviewHow to use our weather pages